Weather History for KMQY - April, 2014

Change the Weather History Date:

Friday, April 11, 2014

  Actual Average Record
Temperature  
Mean Temperature 66 °F -  
Max Temperature 77 °F 66 °F 84 °F (2001)
Min Temperature 55 °F 48 °F 34 °F (2012)
Cooling Degree Days 1    
Growing Degree Days 16 (Base 50)    
Moisture  
Dew Point 49 °F    
Average Humidity 57    
Maximum Humidity 100    
Minimum Humidity 40    
Precipitation  
Precipitation 0.00 in - - ()
Sea Level Pressure  
Sea Level Pressure 30.13 in    
Wind  
Wind Speed 7 mph (SW)    
Max Wind Speed 14 mph    
Max Gust Speed 22 mph    
Visibility 10 miles    
Events Rain    
Averages and records for this station are not official NWS values.
T = Trace of Precipitation, MM = Missing Value Source: NWS Daily Summary

Daily Weather History Graph

Daily Weather History Graph

Search for Another Location

Airport or City:

Trip Planner

Search our weather history database for the weather conditions in past years. The results will help you decide how hot, cold, wet, or windy it might be!

Date:

Astronomy

Apr. 11, 2014 Rise Set
Actual Time 6:18 AM CDT 7:16 PM CDT
Civil Twilight 5:52 AM CDT 7:42 PM CDT
Nautical Twilight 5:21 AM CDT 8:13 PM CDT
Astronomical Twilight 4:49 AM CDT 8:45 PM CDT
Moon 4:02 PM CDT (4/11) 4:06 AM CDT (4/11)
Length of Visible Light 13h 50m
Length of Day
12h 58m
Waxing Gibbous, 87% of the Moon is Illuminated
Apr 11
Waxing Gibbous
Apr 15
Full
Apr 22
Last Quarter
Apr 29
New
May 6
First Quarter

Hourly Weather History & Observations

Time (CDT) Temp. Dew Point Humidity Pressure Visibility Wind Dir Wind Speed Gust Speed Precip Events Conditions
12:56 AM 55.9 °F 41.0 °F 57% 30.12 in 10.0 mi Calm Calm - N/A   Clear
1:56 AM 57.9 °F 41.0 °F 53% 30.10 in 10.0 mi South 5.8 mph - N/A   Clear
2:56 AM 59.9 °F 39.9 °F 48% 30.09 in 10.0 mi SSW 6.9 mph - N/A   Clear
3:56 AM 61.0 °F 41.0 °F 48% 30.11 in 10.0 mi SSW 5.8 mph - N/A   Clear
4:56 AM 61.0 °F 41.9 °F 49% 30.12 in 10.0 mi SSW 9.2 mph - N/A   Clear
5:56 AM 59.9 °F 43.0 °F 54% 30.14 in 10.0 mi SSW 10.4 mph - N/A   Clear
6:56 AM 57.9 °F 45.0 °F 62% 30.16 in 10.0 mi South 5.8 mph - N/A   Clear
7:56 AM 59.9 °F 45.9 °F 60% 30.17 in 10.0 mi SSW 9.2 mph - N/A   Clear
8:56 AM 63.0 °F 47.8 °F 58% 30.18 in 10.0 mi SW 8.1 mph - N/A   Clear
9:56 AM 68.0 °F 50.0 °F 52% 30.18 in 10.0 mi SW 8.1 mph 18.4 mph N/A   Scattered Clouds
10:56 AM 68.0 °F 48.9 °F 50% 30.19 in 10.0 mi WSW 10.4 mph - N/A   Mostly Cloudy
11:56 AM 72.0 °F 48.9 °F 44% 30.16 in 10.0 mi SSW 12.7 mph 19.6 mph N/A   Scattered Clouds
12:56 PM 72.9 °F 48.9 °F 43% 30.14 in 10.0 mi West 13.8 mph - N/A   Clear
1:09 PM 73.4 °F 48.2 °F 41% 30.11 in 10.0 mi WSW 13.8 mph - N/A   Clear
1:56 PM 75.9 °F 50.0 °F 40% 30.12 in 10.0 mi SW 10.4 mph - N/A   Clear
2:56 PM 77.0 °F 50.9 °F 40% 30.09 in 10.0 mi West 11.5 mph - N/A   Clear
3:56 PM 77.0 °F 52.0 °F 42% 30.07 in 10.0 mi SSW 9.2 mph - N/A   Clear
4:56 PM 75.9 °F 52.9 °F 45% 30.07 in 10.0 mi WSW 8.1 mph - N/A   Partly Cloudy
5:56 PM 73.9 °F 52.9 °F 48% 30.08 in 10.0 mi SW 9.2 mph - N/A   Scattered Clouds
6:56 PM 73.9 °F 52.9 °F 48% 30.09 in 10.0 mi WSW 8.1 mph - N/A   Mostly Cloudy
7:38 PM 66.2 °F 53.6 °F 64% 30.12 in 10.0 mi North 12.7 mph 21.9 mph N/A   Mostly Cloudy
7:56 PM 63.9 °F 54.0 °F 70% 30.15 in 10.0 mi NE 10.4 mph - N/A   Overcast
8:56 PM 59.9 °F 55.9 °F 87% 30.15 in 10.0 mi SSE 11.5 mph - 0.00 in Rain Light Rain
9:56 PM 59.0 °F 56.8 °F 93% 30.17 in 10.0 mi Variable 3.5 mph - 0.00 in   Clear
10:56 PM 57.9 °F 56.8 °F 96% 30.16 in 9.0 mi SSW 5.8 mph - 0.00 in   Clear
11:56 PM 56.8 °F 56.8 °F 100% 30.16 in 9.0 mi SSW 3.5 mph - N/A   Clear